Wetbulb
57.91 58.01 57.97 57.77 57.66 57.75 57.98 58.03 58.16 58.24 58.17 58.00 57.93 58.03 58.07 58.11 58.31 58.53 58.59 58.71 58.86 58.83 59.14 59.48 59.82 60.53 60.63 56.59 58.74 71.43 75.22 74.60 68.74 69.31 70.88 70.04 68.47 66.77 64.41 64.42 64.66 63.89 65.07 66.30 66.87 66.50 66.82
57.86 57.81 57.86 57.84 57.55 57.63 57.85 57.91 58.04 57.94 57.93 57.63 57.60 57.57 57.65 57.65 57.78 57.84 57.88 57.55 58.02 58.38 58.88 59.31 59.94 60.59 58.77 54.19 65.62 71.23 67.06 65.12 65.51 70.40 70.40 70.39 69.64 69.64 66.85 65.38 64.91 65.98 66.01 66.27 66.80 66.68 66.94
57.64 57.72 57.68 57.66 57.67 57.74 57.65 57.69 57.86 57.74 57.58 57.40 57.35 57.38 57.50 57.32 57.51 57.55 57.57 57.24 56.80 57.47 58.34 59.39 59.93 60.83 55.90 56.09 63.53 66.62 64.99 64.93 67.23 70.48 70.47 71.68 72.29 68.44 68.15 65.24 67.11 66.32 63.44 64.40 64.88 66.15 66.03
57.69 57.52 57.69 57.59 57.58 57.54 57.42 57.60 57.51 57.46 57.31 57.36 57.32 57.19 57.21 57.13 57.11 57.11 56.87 56.11 56.68 57.96 58.92 59.67 60.42 60.91 54.24 60.29 65.98 65.90 67.35 69.03 70.46 69.48 71.05 71.47 72.39 69.26 67.70 67.88 63.80 62.39 62.19 59.46 63.42 65.54 65.63
57.42 57.40 57.47 57.54 57.53 57.21 57.28 57.12 57.07 57.08 57.23 57.40 57.26 57.06 57.06 56.88 56.67 56.39 55.74 55.74 57.46 60.15 59.87 61.03 60.14 57.97 54.99 64.82 62.96 66.05 69.56 69.00 69.55 69.54 70.37 71.77 68.56 65.55 65.34 60.91 59.53 60.49 56.86 58.22 60.18 64.43 64.00
57.31 57.33 57.29 57.42 57.28 57.04 56.92 56.80 56.77 57.01 57.06 57.08 56.81 56.79 56.39 56.55 56.36 55.46 54.91 55.85 57.57 60.04 60.94 61.65 60.45 53.82 56.71 58.42 61.62 65.06 69.01 67.82 64.65 65.52 64.29 64.08 63.72 61.44 61.38 59.74 53.33 54.88 56.09 58.03 58.59 61.92 63.13
57.08 57.00 57.05 57.15 57.16 56.88 56.61 56.59 56.62 56.66 56.94 56.79 56.61 56.27 56.14 56.06 55.80 54.66 53.91 54.28 55.24 54.49 57.95 53.00 54.32 54.35 55.65 59.13 60.38 63.16 67.37 67.71 66.38 63.40 59.43 60.97 59.52 57.84 59.18 59.83 59.26 57.94 56.90 57.16 60.67 62.87 61.42
56.71 56.66 56.56 56.69 56.71 56.37 56.50 56.46 56.53 56.45 56.55 56.49 56.18 56.04 55.84 55.25 54.81 54.50 52.62 53.79 53.37 53.30 51.51 54.40 54.99 54.58 56.22 57.66 55.24 57.94 66.98 61.84 60.97 57.52 59.46 58.24 57.37 60.72 60.92 59.90 58.06 57.64 57.16 57.87 61.27 60.55 61.52
56.36 56.37 56.18 56.16 56.21 56.44 56.49 56.29 56.01 56.17 55.68 55.90 55.27 55.45 54.09 53.79 53.87 52.89 51.45 53.47 54.84 54.67 51.45 53.44 54.07 54.47 55.78 57.32 55.35 56.24 63.55 60.97 59.16 57.77 58.14 57.33 59.60 61.39 58.94 57.16 56.37 58.22 56.44 56.23 56.90 58.85 57.47
56.19 56.06 56.17 56.09 56.03 56.13 56.23 55.96 55.32 55.09 54.75 54.34 54.07 54.09 53.17 52.23 51.18 51.48 52.42 55.26 55.18 54.71 49.09 49.40 51.52 54.00 55.58 56.94 54.92 58.87 63.48 60.66 59.08 58.16 58.48 58.09 59.47 58.71 56.71 55.73 56.87 54.63 58.22 57.01 56.30 56.14 53.63
55.62 56.02 56.21 56.10 56.14 56.07 55.54 54.67 54.59 54.58 54.21 53.93 53.50 53.21 52.51 52.15 50.43 52.64 52.82 55.49 54.13 54.08 40.00 50.97 51.20 56.69 55.51 55.72 57.29 56.20 62.31 61.52 57.93 57.85 57.91 57.06 56.48 56.68 55.56 56.09 57.48 55.24 57.01 55.73 55.49 55.78 54.39
55.50 55.73 56.23 55.96 55.77 55.89 54.99 54.42 54.10 53.78 53.52 53.29 52.87 52.56 52.31 51.27 51.08 54.17 54.62 53.85 54.57 47.73 40.63 50.13 51.73 52.00 52.82 54.47 55.10 57.32 59.08 61.12 60.82 58.28 57.29 57.50 58.78 58.23 57.69 58.17 58.12 57.88 55.95 54.76 54.14 54.37 51.14
55.69 56.17 56.04 56.11 55.78 55.48 54.10 53.83 53.68 53.48 53.13 52.72 52.21 51.95 51.34 52.37 52.62 53.60 54.22 54.81 47.85 41.84 49.83 48.67 48.49 52.00 52.33 52.27 53.69 55.16 55.79 56.11 55.49 53.03 53.54 55.04 55.80 57.77 58.28 55.87 56.62 56.07 54.30 51.52 50.56 50.07 48.87
55.48 55.56 55.66 55.52 55.54 54.74 53.77 53.70 53.56 53.13 52.76 52.10 51.41 51.58 51.94 52.48 53.97 53.38 54.62 52.27 42.52 45.00 47.17 52.02 49.11 49.67 50.58 52.05 53.69 52.98 53.27 53.65 53.68 54.08 52.46 52.08 51.84 54.68 57.09 56.70 55.63 54.83 54.40 51.85 46.50 47.05 49.16
55.38 55.10 54.56 54.58 54.63 54.08 53.71 53.46 53.17 52.71 52.38 51.62 51.02 51.33 52.31 54.34 54.35 53.94 53.76 45.23 44.73 46.13 49.43 46.63 48.55 47.78 48.91 50.98 52.11 52.65 52.77 52.41 54.90 55.12 52.42 50.65 50.34 55.05 55.57 57.05 56.42 53.41 52.62 54.01 49.28 47.74 48.95
55.52 54.95 54.40 54.05 54.20 53.95 53.52 53.56 53.29 52.55 51.89 51.66 48.17 50.24 54.37 55.06 55.31 53.51 50.70 43.62 46.02 48.89 49.83 47.66 45.80 47.94 47.74 49.36 50.29 50.73 50.84 52.13 52.48 54.85 56.92 53.98 49.79 53.56 54.82 56.12 54.36 54.68 55.13 50.49 51.18 46.82 45.48
55.70 55.56 54.54 53.65 53.82 53.79 53.17 53.05 52.77 52.25 51.82 51.07 48.88 52.80 54.02 54.94 50.82 52.18 45.28 45.67 45.97 49.22 49.92 46.29 45.98 45.19 47.57 48.87 50.44 48.76 49.60 50.95 51.51 50.93 54.58 54.23 52.54 51.70 53.24 52.98 52.98 52.12 51.86 50.46 51.28 50.46 47.57
55.73 55.65 55.10 53.88 53.34 53.44 53.60 53.21 52.23 51.53 51.11 50.53 46.42 50.77 54.17 50.79 48.44 43.88 45.60 45.57 45.57 47.56 48.88 50.22 47.61 47.15 47.26 48.86 48.79 48.87 49.39 49.82 52.28 53.25 50.77 53.63 52.15 49.73 51.62 54.32 52.50 52.62 52.24 51.83 48.65 48.00 48.46
55.44 55.52 54.93 54.59 53.54 53.28 53.60 53.10 52.23 51.37 51.12 49.01 47.65 48.52 56.81 52.12 44.32 44.91 45.76 46.59 47.03 50.07 49.74 48.20 46.90 47.98 48.92 49.27 49.08 49.74 49.63 52.68 53.84 53.41 52.07 52.02 49.76 47.37 48.57 51.08 51.49 51.29 51.82 52.43 51.54 51.62 48.96
55.01 55.32 54.87 54.50 54.34 53.73 53.16 52.83 52.52 51.55 51.72 49.74 49.98 50.66 52.81 50.48 48.21 47.88 48.20 48.75 48.65 50.42 50.19 51.12 49.05 48.86 48.68 48.60 49.79 49.00 50.22 52.92 55.37 55.32 58.99 57.12 50.24 51.01 47.98 49.84 51.33 50.62 51.22 52.22 52.82 50.22 50.58
54.53 54.57 54.70 54.58 54.40 54.28 54.13 53.30 52.32 51.82 51.65 49.74 50.09 48.14 48.14 47.61 48.44 50.26 50.26 49.85 49.04 49.12 51.44 50.03 48.04 48.16 49.08 47.83 47.76 48.67 49.79 53.20 55.23 57.21 53.88 53.74 50.66 50.40 50.85 49.99 50.35 50.58 50.95 51.35 51.28 52.90 49.83
54.00 53.79 54.05 54.54 54.54 54.56 54.24 53.27 52.77 51.65 50.63 48.52 48.50 47.60 49.74 48.24 47.45 49.10 47.25 49.77 48.68 49.82 50.14 50.08 48.39 49.76 48.51 48.30 50.13 49.74 51.36 53.75 53.70 55.11 54.46 52.49 51.82 51.28 50.34 51.17 50.94 49.87 51.71 51.43 51.88 52.14 52.41
53.89 53.79 53.65 54.30 54.68 54.60 54.54 53.72 53.35 51.83 50.15 46.19 46.80 48.56 48.34 45.31 47.16 47.95 49.11 49.92 49.52 49.85 51.59 52.13 50.81 50.37 50.58 51.54 52.84 52.76 54.46 55.39 55.77 55.87 54.12 53.53 52.15 50.56 47.06 49.72 50.17 47.87 51.85 53.35 54.65 55.89 54.89
53.75 53.83 53.87 54.09 54.68 54.89 54.59 54.01 53.68 52.20 51.06 48.14 46.71 46.52 46.89 45.48 46.02 48.04 48.50 47.86 48.86 49.98 48.96 51.25 52.02 51.25 53.66 55.19 54.46 54.95 54.47 54.47 55.12 53.76 54.85 53.34 53.22 51.47 48.39 49.30 42.83 51.91 57.85 56.79 55.90 56.57 57.64
52.79 53.04 53.25 53.42 53.77 54.06 54.56 54.73 54.42 53.20 51.72 48.28 48.06 46.98 47.18 43.89 44.97 46.16 46.60 47.39 49.40 49.73 48.43 49.52 52.14 53.58 53.61 53.97 53.31 51.84 51.80 51.86 52.33 51.63 52.63 51.85 52.48 49.22 46.93 46.55 49.03 52.52 55.93 56.31 55.47 55.42 58.75
52.32 52.30 52.05 52.57 52.92 53.33 53.58 54.14 54.64 53.46 51.75 49.83 47.79 48.91 47.90 45.64 43.87 45.70 46.72 47.23 47.72 48.45 49.96 50.33 53.50 54.13 53.62 53.58 52.54 48.63 46.90 49.80 48.74 49.08 50.51 50.48 51.57 50.82 46.04 44.12 42.16 51.00 57.39 59.18 58.11 52.25 58.85
52.67 52.55 52.79 52.19 52.20 52.28 52.45 53.34 53.81 53.60 51.97 50.59 48.91 49.05 48.38 46.37 49.30 47.54 46.44 46.85 49.04 48.25 48.00 48.85 50.31 51.91 52.67 52.18 50.09 48.74 48.58 49.54 47.68 47.57 48.17 49.28 48.85 47.87 48.24 45.79 48.65 53.02 57.53 58.98 50.50 52.68 59.61
52.53 52.53 52.15 52.26 52.44 52.52 52.40 52.51 52.95 53.31 53.21 51.17 49.23 50.07 48.26 46.37 47.50 49.44 50.22 48.80 48.80 48.78 47.22 49.96 49.55 50.26 53.37 50.01 49.60 48.60 48.11 49.35 48.31 49.71 49.76 49.17 48.49 47.61 46.47 45.15 44.24 55.89 56.10 54.13 57.91 60.53 59.96
52.59 52.76 52.76 52.17 52.22 52.55 52.75 53.15 52.80 53.10 53.15 51.56 47.64 49.31 50.00 45.16 45.56 49.25 52.01 53.16 52.65 52.16 50.65 49.33 48.71 48.76 53.51 52.13 50.43 49.21 48.27 48.54 49.04 45.61 51.06 48.61 51.85 52.86 51.14 51.96 55.02 56.04 56.30 58.37 60.22 60.10 60.79
MSLP
1020.96 1020.66 1020.36 1019.90 1019.48 1019.11 1018.72 1018.36 1018.02 1017.74 1017.28 1016.74 1016.27 1015.81 1015.35 1014.95 1014.53 1014.08 1013.74 1013.41 1013.05 1012.64 1012.32 1012.04 1011.77 1011.46 1010.95 1009.57 1007.07 1006.31 1006.39 1006.60 1006.64 1006.66 1006.58 1006.67 1006.75 1006.86 1006.80 1006.79 1006.78 1006.50 1005.63 1005.31 1004.85 1004.93 1004.69
1021.29 1020.88 1020.39 1019.92 1019.56 1019.20 1018.84 1018.51 1018.10 1017.62 1017.12 1016.66 1016.22 1015.76 1015.33 1014.90 1014.41 1013.94 1013.53 1013.18 1012.82 1012.36 1012.12 1011.84 1011.62 1011.52 1010.52 1008.31 1006.12 1006.18 1006.33 1006.51 1006.30 1006.50 1006.54 1006.61 1006.59 1006.71 1006.78 1006.64 1006.40 1005.85 1005.33 1004.77 1004.22 1004.23 1004.16
1021.33 1020.85 1020.43 1020.08 1019.72 1019.36 1018.99 1018.61 1018.11 1017.60 1017.14 1016.67 1016.21 1015.76 1015.27 1014.78 1014.19 1013.66 1013.24 1012.85 1012.52 1012.11 1011.75 1011.53 1011.46 1011.20 1009.78 1007.06 1006.05 1006.29 1006.42 1006.32 1006.44 1006.44 1006.37 1006.73 1006.67 1006.61 1006.68 1006.31 1006.24 1005.64 1004.80 1004.00 1003.91 1003.73 1003.36
1021.38 1020.99 1020.67 1020.31 1019.90 1019.53 1019.08 1018.57 1018.10 1017.64 1017.16 1016.69 1016.22 1015.74 1015.19 1014.63 1013.98 1013.36 1012.87 1012.47 1012.01 1011.43 1011.19 1011.16 1011.26 1010.76 1008.15 1006.27 1006.10 1006.31 1006.31 1006.46 1006.68 1006.63 1006.57 1006.93 1006.83 1006.73 1006.61 1006.30 1005.86 1005.38 1004.89 1004.03 1003.76 1003.65 1003.36
1021.65 1021.28 1020.94 1020.58 1020.16 1019.68 1019.14 1018.61 1018.09 1017.59 1017.08 1016.58 1016.05 1015.51 1014.92 1014.32 1013.70 1013.06 1012.53 1012.09 1011.49 1010.87 1010.80 1010.91 1010.92 1009.87 1007.17 1006.52 1006.09 1005.75 1006.12 1005.99 1006.42 1006.73 1006.70 1006.89 1006.80 1006.87 1006.54 1006.15 1005.64 1005.40 1004.80 1004.16 1003.72 1003.55 1003.45
1021.88 1021.52 1021.14 1020.72 1020.23 1019.73 1019.22 1018.67 1018.12 1017.59 1017.04 1016.46 1015.85 1015.25 1014.64 1014.03 1013.47 1012.85 1012.17 1011.71 1011.19 1011.03 1010.83 1010.58 1009.99 1009.30 1006.72 1005.83 1005.47 1005.68 1006.17 1006.00 1006.11 1006.42 1006.69 1006.82 1006.86 1006.65 1006.54 1006.04 1005.59 1005.33 1004.83 1004.28 1003.74 1003.60 1003.42
1021.94 1021.55 1021.11 1020.66 1020.19 1019.73 1019.28 1018.73 1018.14 1017.56 1016.99 1016.40 1015.74 1015.02 1014.35 1013.74 1013.10 1012.56 1011.86 1011.05 1011.24 1010.76 1009.93 1008.39 1007.80 1007.00 1006.01 1005.43 1005.40 1005.49 1005.82 1006.04 1006.31 1006.31 1006.28 1006.71 1006.65 1006.23 1005.89 1005.77 1005.60 1005.33 1005.02 1004.52 1003.66 1003.40 1003.27
1022.01 1021.60 1021.20 1020.78 1020.37 1019.93 1019.41 1018.87 1018.26 1017.61 1017.01 1016.34 1015.65 1014.95 1014.23 1013.58 1012.94 1012.42 1012.07 1010.77 1010.47 1010.42 1008.98 1007.27 1006.97 1006.47 1005.97 1005.69 1005.25 1005.19 1005.46 1005.62 1006.24 1006.12 1006.48 1006.70 1006.20 1005.78 1005.75 1005.49 1005.15 1004.95 1004.48 1004.00 1003.60 1003.39 1003.09
1022.14 1021.73 1021.33 1020.90 1020.47 1020.01 1019.46 1018.87 1018.24 1017.60 1016.98 1016.35 1015.71 1015.00 1014.23 1013.43 1012.60 1012.21 1011.60 1010.42 1010.16 1009.92 1009.00 1006.72 1006.06 1005.55 1005.15 1005.25 1004.83 1004.56 1004.95 1004.97 1005.25 1005.73 1005.86 1005.85 1005.61 1005.63 1005.30 1004.95 1004.46 1004.48 1004.21 1003.87 1003.68 1003.33 1003.32
1022.23 1021.80 1021.35 1020.86 1020.34 1019.85 1019.35 1018.75 1018.10 1017.52 1016.90 1016.29 1015.70 1014.98 1014.26 1013.31 1012.79 1012.08 1010.83 1010.17 1010.02 1009.77 1008.45 1006.25 1005.40 1004.39 1004.62 1004.40 1004.24 1003.85 1004.11 1004.16 1004.78 1005.07 1005.56 1005.55 1005.28 1005.24 1004.75 1004.37 1004.22 1003.84 1004.14 1003.81 1003.30 1002.99 1003.15
1022.28 1021.81 1021.34 1020.80 1020.23 1019.64 1019.07 1018.59 1017.97 1017.31 1016.64 1016.00 1015.50 1014.98 1014.34 1014.07 1013.15 1011.70 1010.68 1010.28 1009.87 1009.44 1007.46 1005.32 1004.58 1004.11 1004.06 1003.76 1003.34 1003.69 1003.82 1003.86 1003.84 1004.49 1005.15 1004.75 1004.72 1004.98 1004.38 1003.92 1003.94 1003.78 1004.07 1003.96 1003.68 1003.53 1003.59
1022.25 1021.77 1021.27 1020.74 1020.15 1019.52 1018.90 1018.27 1017.68 1017.05 1016.33 1015.55 1014.91 1014.61 1014.13 1013.51 1013.08 1010.74 1010.38 1009.98 1009.53 1008.73 1006.25 1004.47 1003.99 1003.80 1003.77 1003.48 1003.17 1003.44 1003.62 1003.76 1003.89 1004.26 1004.60 1004.46 1004.54 1004.32 1003.73 1003.68 1003.70 1003.80 1004.03 1004.02 1004.14 1003.79 1003.40
1022.41 1021.88 1021.31 1020.70 1020.09 1019.45 1018.79 1018.11 1017.39 1016.68 1015.97 1015.05 1014.14 1013.62 1013.77 1012.94 1011.16 1010.59 1010.27 1009.54 1008.97 1007.57 1005.37 1004.46 1003.76 1003.56 1003.25 1003.00 1002.96 1002.90 1003.14 1003.32 1003.25 1003.80 1003.82 1004.13 1003.95 1003.66 1003.60 1003.47 1003.67 1003.64 1003.27 1003.28 1003.39 1003.36 1003.55
1022.42 1021.91 1021.35 1020.79 1020.11 1019.39 1018.73 1017.99 1017.17 1016.35 1015.59 1014.66 1013.36 1012.37 1011.94 1011.57 1010.88 1010.59 1009.64 1009.05 1008.09 1006.24 1005.16 1004.33 1003.76 1003.54 1003.12 1002.86 1002.74 1002.75 1003.03 1003.10 1003.50 1003.44 1003.51 1003.34 1003.36 1003.29 1003.20 1002.86 1002.77 1003.12 1003.04 1003.19 1003.20 1003.65 1003.75
1022.28 1021.81 1021.29 1020.74 1020.14 1019.45 1018.66 1017.86 1017.04 1016.17 1015.25 1014.25 1012.68 1011.67 1011.44 1010.69 1010.62 1010.89 1009.40 1008.45 1007.01 1006.18 1005.33 1004.46 1003.77 1003.27 1002.91 1002.66 1002.52 1002.68 1002.80 1002.88 1003.00 1003.19 1003.21 1003.43 1003.30 1003.12 1003.05 1002.77 1002.83 1003.55 1003.49 1003.71 1003.77 1004.80 1004.04
1022.15 1021.65 1021.20 1020.63 1020.05 1019.49 1018.74 1017.84 1016.93 1016.01 1015.00 1013.98 1013.08 1011.77 1010.61 1010.30 1010.32 1009.80 1009.05 1007.92 1007.27 1006.47 1005.62 1004.85 1003.87 1003.29 1002.69 1002.53 1002.46 1002.61 1002.74 1002.44 1002.52 1002.69 1002.75 1003.21 1003.35 1003.16 1002.86 1002.99 1003.43 1003.25 1003.56 1003.85 1003.77 1003.57 1003.42
1022.05 1021.49 1021.04 1020.53 1020.01 1019.40 1018.74 1017.93 1017.04 1015.95 1014.59 1013.38 1012.75 1011.30 1010.45 1010.30 1010.15 1009.23 1008.52 1007.98 1007.19 1006.33 1006.00 1005.10 1004.32 1003.63 1003.03 1002.62 1002.39 1002.46 1002.51 1002.41 1002.31 1002.76 1003.02 1003.08 1003.17 1003.08 1003.01 1002.61 1002.52 1003.51 1003.38 1003.86 1003.77 1003.64 1002.95
1022.16 1021.50 1020.89 1020.33 1019.87 1019.35 1018.65 1017.91 1017.18 1016.22 1014.78 1013.36 1012.83 1011.28 1010.46 1010.30 1009.73 1009.70 1008.51 1007.95 1007.25 1006.24 1005.83 1005.19 1004.74 1004.07 1003.44 1002.97 1002.67 1002.59 1002.36 1002.31 1002.42 1002.60 1003.02 1003.26 1002.88 1002.43 1002.41 1002.45 1002.95 1002.78 1002.74 1003.01 1002.86 1003.58 1003.73
1022.16 1021.60 1021.02 1020.38 1019.74 1019.16 1018.57 1017.85 1017.16 1016.35 1015.68 1014.93 1013.39 1011.75 1010.37 1009.94 1009.40 1009.10 1008.55 1007.72 1007.08 1006.35 1005.79 1005.31 1004.66 1004.25 1003.82 1003.28 1003.03 1002.48 1002.37 1002.31 1002.47 1002.44 1002.49 1002.98 1002.97 1002.43 1002.18 1002.77 1003.12 1002.57 1002.46 1002.57 1002.88 1002.85 1002.89
1022.13 1021.59 1021.04 1020.47 1019.84 1019.08 1018.45 1017.83 1017.08 1016.36 1015.67 1015.19 1013.66 1012.00 1010.59 1010.07 1009.97 1008.99 1008.23 1007.63 1006.96 1006.44 1005.93 1005.44 1004.90 1004.45 1003.96 1003.36 1003.15 1002.69 1002.36 1002.33 1002.54 1002.58 1002.67 1002.58 1002.68 1002.10 1001.80 1002.19 1002.58 1002.36 1002.17 1002.26 1002.12 1002.16 1002.29
1022.15 1021.63 1021.06 1020.44 1019.83 1019.18 1018.45 1017.83 1017.17 1016.35 1015.62 1015.39 1013.93 1013.05 1012.43 1010.64 1009.95 1009.19 1008.47 1007.88 1007.17 1006.55 1006.14 1005.65 1004.99 1004.52 1003.91 1003.55 1003.17 1002.77 1002.55 1002.43 1002.62 1002.97 1003.09 1002.93 1002.60 1002.94 1002.63 1002.79 1002.78 1002.61 1002.46 1002.53 1002.40 1002.05 1002.09
1022.12 1021.67 1021.11 1020.52 1019.90 1019.25 1018.58 1017.91 1017.28 1016.48 1015.54 1015.29 1014.70 1014.15 1012.91 1011.69 1010.63 1009.72 1008.74 1007.80 1007.30 1006.83 1006.38 1005.56 1005.16 1004.39 1004.41 1003.85 1003.04 1002.54 1002.46 1002.53 1002.26 1002.98 1003.08 1003.33 1003.25 1003.44 1002.99 1003.03 1003.09 1002.89 1002.82 1002.79 1002.82 1003.00 1003.01
1022.23 1021.64 1021.09 1020.52 1020.01 1019.41 1018.81 1018.18 1017.58 1017.04 1016.15 1015.82 1015.71 1015.21 1014.23 1012.29 1010.94 1010.05 1008.83 1008.08 1007.51 1007.43 1006.41 1005.92 1005.63 1005.30 1004.63 1004.05 1003.59 1002.84 1002.88 1002.74 1002.62 1002.59 1003.11 1003.44 1003.55 1003.83 1003.35 1003.82 1003.71 1003.38 1003.18 1003.11 1003.01 1003.42 1003.18
1022.12 1021.65 1021.12 1020.49 1020.02 1019.51 1018.94 1018.40 1017.89 1017.57 1017.50 1017.35 1017.00 1016.28 1014.48 1012.57 1011.50 1010.20 1009.46 1008.96 1008.17 1007.69 1007.18 1006.23 1005.82 1005.43 1004.95 1004.55 1004.08 1003.34 1003.09 1003.02 1003.06 1003.44 1003.50 1003.80 1004.23 1004.52 1004.14 1004.59 1003.99 1003.31 1004.03 1004.06 1003.89 1004.11 1004.36
1022.24 1021.71 1021.15 1020.58 1020.12 1019.60 1019.03 1018.51 1018.04 1017.80 1017.65 1017.51 1017.32 1016.82 1015.24 1013.51 1012.33 1010.69 1009.95 1009.29 1008.59 1008.01 1007.59 1006.72 1005.83 1005.62 1005.26 1004.64 1003.90 1003.60 1003.54 1003.47 1003.52 1004.25 1004.42 1004.70 1004.77 1004.96 1004.94 1004.48 1003.87 1004.02 1004.40 1004.18 1003.79 1003.91 1004.68
1022.13 1021.67 1021.15 1020.67 1020.19 1019.76 1019.24 1018.66 1018.13 1017.84 1017.68 1017.43 1017.44 1017.27 1016.20 1014.75 1012.43 1011.86 1010.79 1009.97 1009.00 1008.23 1007.54 1006.71 1006.21 1005.95 1005.33 1004.81 1004.19 1003.80 1003.64 1003.69 1004.12 1005.02 1005.60 1005.49 1005.49 1005.11 1005.63 1004.69 1003.88 1003.26 1003.46 1004.36 1004.43 1003.67 1004.47
1021.88 1021.45 1020.94 1020.60 1020.18 1019.75 1019.33 1018.82 1018.29 1017.90 1017.71 1017.61 1017.35 1017.44 1016.64 1015.26 1012.94 1012.38 1011.29 1010.33 1009.61 1009.02 1008.20 1007.54 1006.93 1006.28 1005.79 1005.08 1004.78 1004.55 1004.27 1004.60 1004.31 1004.65 1005.30 1005.55 1005.81 1005.46 1004.82 1004.71 1003.96 1004.00 1004.34 1004.81 1004.66 1003.65 1004.18
1021.68 1021.29 1020.74 1020.32 1019.92 1019.54 1019.22 1018.83 1018.35 1017.95 1017.66 1017.49 1017.17 1017.29 1016.86 1015.58 1013.27 1012.16 1011.34 1010.55 1009.89 1009.41 1008.57 1008.20 1007.85 1007.16 1006.41 1005.89 1005.60 1005.30 1005.05 1005.08 1005.11 1005.06 1005.11 1005.08 1005.36 1005.40 1005.74 1005.31 1004.64 1004.79 1004.86 1004.61 1004.32 1004.50 1004.97
1021.48 1020.98 1020.56 1020.08 1019.62 1019.20 1018.86 1018.53 1018.20 1017.87 1017.55 1017.44 1017.33 1017.25 1017.19 1016.46 1013.36 1012.24 1011.02 1010.34 1010.03 1009.48 1009.28 1008.94 1008.62 1007.98 1007.32 1006.86 1006.66 1006.11 1005.70 1005.80 1005.48 1005.04 1005.54 1005.60 1005.26 1005.25 1005.81 1005.36 1005.56 1005.53 1005.34 1004.98 1004.87 1004.97 1005.46
Wind_Speed
16 15 15 16 16 16 16 16 16 15 16 17 17 17 18 18 18 18 17 16 16 16 15 14 12 11 3 3 5 5 11 10 8 6 5 3 2 1 1 3 3 4 2 4 6 6 7
15 15 16 17 17 17 17 17 17 17 17 18 18 18 18 18 18 18 17 17 17 16 14 13 10 8 3 4 2 6 10 8 6 5 3 1 2 1 1 3 3 7 10 11 6 3 5
16 17 17 17 18 18 18 17 18 18 18 19 19 18 19 19 19 19 18 17 17 17 14 11 7 4 2 8 3 5 6 3 3 2 3 3 2 3 4 4 5 6 7 5 1 3 5
17 17 17 17 17 17 18 19 19 19 19 19 19 19 19 19 20 20 19 19 19 17 12 8 5 3 7 1 0 5 5 5 4 2 1 1 1 1 3 5 0 2 1 6 4 1 1
16 16 16 16 17 17 18 19 19 20 19 19 19 19 19 19 20 21 20 19 17 6 3 8 4 3 5 1 3 5 4 4 5 3 0 3 2 1 2 4 2 5 4 6 4 3 2
16 16 17 17 18 18 19 19 20 20 20 20 21 21 21 20 20 21 21 17 6 1 2 4 3 4 4 2 2 3 5 4 4 4 4 3 1 1 2 3 4 5 4 5 8 0 3
17 18 19 19 19 20 20 20 21 21 21 21 21 22 22 21 21 22 10 2 3 3 3 6 2 2 2 4 3 3 4 8 2 2 3 2 0 3 4 4 5 5 4 7 5 5 4
18 18 19 19 19 19 19 20 20 21 21 22 22 23 23 23 22 12 2 1 5 2 7 9 11 9 5 2 2 3 10 8 8 6 4 3 6 5 3 3 4 1 1 4 6 6 2
17 17 17 18 18 18 18 19 20 21 23 22 23 22 25 23 23 3 4 1 3 1 4 5 6 6 5 10 6 6 13 8 5 7 8 5 2 7 2 2 2 2 6 8 3 5 2
17 17 18 18 18 18 18 20 22 23 23 23 23 23 24 28 4 4 3 3 6 5 3 4 5 5 7 7 6 7 14 6 4 8 7 6 2 2 2 3 2 3 1 8 7 5 5
17 17 17 18 18 19 20 22 23 24 24 24 24 23 22 13 8 3 3 6 2 4 4 4 4 2 3 12 7 7 6 4 10 8 6 3 4 4 4 1 1 2 4 4 2 2 2
18 18 17 18 19 20 21 22 23 24 25 26 26 23 21 2 3 5 6 6 3 2 7 1 4 6 10 5 5 5 6 1 1 5 1 3 1 4 3 3 5 1 3 2 2 2 4
19 18 18 18 18 20 22 23 25 25 26 27 29 26 13 3 2 5 6 3 2 5 2 2 2 6 8 8 7 6 10 11 9 6 9 5 7 4 3 4 3 5 2 4 4 4 4
18 18 18 19 19 21 22 24 25 27 27 28 32 25 3 5 3 7 3 2 5 2 4 2 1 3 10 8 8 5 7 11 2 3 3 6 8 8 7 8 4 5 4 5 7 6 6
17 19 20 19 20 21 23 24 26 27 28 31 26 2 2 2 5 3 2 5 4 4 3 5 1 4 6 5 4 8 8 6 10 10 8 6 5 2 4 3 3 6 5 2 5 2 4
16 17 19 20 19 20 23 24 26 27 29 29 5 4 2 5 6 3 2 5 4 4 4 2 1 1 7 8 9 8 8 4 10 14 12 6 6 4 2 5 5 4 9 5 2 7 9
16 16 18 21 20 20 23 24 26 27 29 20 3 1 6 2 3 1 5 5 5 5 4 3 2 3 1 3 8 7 5 4 4 7 7 9 8 4 4 5 7 5 5 3 1 3 6
17 18 16 19 21 20 20 21 25 25 28 5 3 2 3 3 2 1 4 5 1 3 3 2 2 3 3 1 4 6 8 4 2 9 11 7 5 12 17 4 2 3 4 5 8 7 1
19 17 17 18 20 20 20 21 23 23 21 4 3 2 1 3 3 3 2 3 3 2 2 1 3 4 1 2 3 5 6 4 4 8 9 11 5 6 5 6 4 7 7 6 4 3 8
18 19 18 18 18 19 21 24 22 25 21 1 2 1 1 2 1 1 3 2 2 3 4 4 4 2 2 3 3 1 4 3 2 2 5 8 5 5 8 2 1 4 9 9 8 6 7
18 19 19 18 18 19 18 21 23 25 20 2 2 2 4 2 3 2 2 1 2 3 4 3 3 9 6 3 3 4 3 1 2 3 4 3 4 3 3 3 3 3 5 8 10 9 10
18 19 20 19 18 18 18 19 21 24 19 0 3 3 2 1 2 2 2 5 4 2 3 4 8 1 6 5 6 7 7 4 3 4 3 1 3 2 3 0 1 6 9 10 12 6 9
18 18 19 19 18 17 17 17 17 18 13 4 2 1 3 1 1 2 3 2 3 1 4 10 6 7 8 11 11 12 5 4 2 4 5 2 5 3 7 2 4 10 10 10 5 4 6
17 18 18 18 19 18 17 15 15 14 12 3 2 3 2 1 3 3 2 2 4 4 5 6 6 5 1 5 2 7 5 4 4 4 2 6 4 2 5 2 12 3 6 8 9 4 7
18 19 18 18 19 20 19 17 13 11 10 4 1 3 2 3 3 7 5 5 7 4 5 5 4 3 7 3 2 4 2 2 0 7 4 4 4 4 5 9 8 7 5 7 10 9 7
18 17 19 19 18 18 18 18 16 11 10 5 2 2 2 3 2 4 4 2 3 3 3 4 2 6 1 1 2 4 5 4 6 6 4 5 5 5 4 8 13 9 9 5 2 10 13
16 17 17 18 18 18 18 17 16 13 10 4 3 3 2 3 3 4 5 3 1 1 4 3 6 4 3 2 2 3 4 1 5 4 4 3 2 9 10 9 9 4 8 6 10 5 16
16 16 17 18 19 18 17 17 15 13 11 5 4 3 3 3 8 8 5 6 3 2 3 4 4 3 0 3 4 4 4 4 3 2 4 7 5 5 3 6 13 3 8 10 3 11 13
16 16 16 18 19 19 17 16 15 13 10 3 2 0 1 4 7 3 8 13 14 10 2 1 4 3 1 1 1 2 3 3 3 5 2 5 5 2 6 1 4 5 7 4 6 10 8
Wind_Direction
14 12 10 9 6 5 4 1 356 351 350 350 346 341 337 334 329 324 322 320 315 311 313 315 316 321 295 280 259 73 123 142 149 159 138 107 84 132 321 293 266 224 317 235 244 234 255
12 11 11 9 7 5 2 358 353 352 351 349 344 339 334 330 326 323 322 319 314 309 308 306 307 310 280 276 37 146 143 160 167 155 141 192 23 39 274 291 304 327 302 291 288 173 196
13 12 11 8 5 3 359 355 354 352 349 345 340 335 331 329 325 323 320 317 311 303 299 293 287 268 243 261 343 151 164 154 140 132 97 28 341 325 343 309 341 304 323 338 36 328 202
12 10 9 5 3 359 356 354 352 349 346 340 336 333 329 327 324 321 320 316 308 299 283 261 230 235 260 333 73 163 184 126 80 186 38 62 212 349 293 291 329 334 360 4 22 270 324
9 7 6 2 1 359 356 353 350 346 341 337 335 332 329 327 324 323 320 316 310 315 180 156 180 253 269 148 228 183 181 122 148 125 35 95 52 14 274 359 57 26 332 342 340 287 240
6 5 3 1 359 358 354 350 347 344 339 337 334 332 329 327 325 323 317 304 272 273 171 206 247 267 223 165 164 150 159 113 100 126 138 147 89 256 69 359 29 320 344 325 297 216 229
4 2 1 360 358 355 352 349 345 342 338 336 334 332 330 329 325 326 322 166 232 190 204 223 188 278 306 319 187 164 152 153 74 320 215 79 115 244 267 239 283 293 264 286 293 284 249
1 360 359 357 355 351 348 345 342 339 338 335 334 332 330 329 326 327 261 65 87 22 298 235 246 269 262 319 314 145 164 160 186 200 168 169 237 238 219 265 280 27 5 12 282 52 270
359 357 356 354 351 347 345 343 340 339 339 336 335 333 333 330 321 273 315 166 72 223 260 277 203 207 214 176 214 208 183 153 175 176 196 222 136 161 272 330 41 108 17 5 324 337 112
357 354 352 350 349 346 344 342 342 340 339 336 335 335 335 330 286 340 263 99 322 201 287 240 214 232 167 164 225 190 184 171 169 199 188 236 163 178 140 321 359 88 237 319 338 3 345
355 353 350 347 346 344 345 345 341 338 337 333 332 333 331 328 314 244 60 324 123 220 280 129 170 78 148 190 136 181 184 169 183 175 191 171 155 161 307 152 89 317 349 358 357 143 288
353 352 349 347 345 342 343 343 341 338 335 331 327 329 330 181 230 265 325 312 210 230 248 115 138 166 163 194 154 120 172 130 120 158 238 246 349 242 208 215 278 336 186 85 109 199 262
351 348 346 344 342 342 343 342 340 338 335 329 324 319 306 251 261 336 307 188 193 226 343 113 175 173 189 174 164 163 174 184 190 183 217 191 223 242 216 226 163 205 214 280 254 263 303
353 349 345 346 339 343 344 341 339 337 336 330 324 315 193 220 295 337 196 147 223 243 259 340 36 135 196 163 194 146 146 192 186 154 136 221 228 190 163 221 258 173 233 251 274 266 307
349 350 350 344 343 344 343 342 340 338 336 331 321 322 212 255 238 244 181 202 236 220 324 321 248 180 189 183 192 187 201 207 203 188 211 183 250 287 229 172 203 139 205 39 117 75 249
344 355 350 348 347 343 343 343 342 340 336 332 320 323 322 344 174 185 163 231 247 234 318 285 298 254 186 177 180 189 177 186 198 190 210 189 256 202 168 175 70 259 138 184 185 239 259
344 346 354 352 349 346 345 345 344 343 335 333 283 271 11 92 231 120 207 228 253 250 241 322 332 309 287 186 206 179 198 189 200 176 199 177 227 183 202 201 222 146 180 76 171 287 255
345 345 345 354 352 348 344 345 346 347 339 18 321 184 31 284 139 341 184 199 240 274 218 267 253 262 255 207 167 189 203 237 121 153 166 188 219 245 253 278 291 236 240 215 240 194 255
343 345 351 349 352 352 346 348 349 349 352 321 354 311 57 287 193 192 220 241 246 256 267 272 268 236 124 298 235 191 198 141 156 165 165 170 210 234 219 165 152 214 192 180 144 181 185
343 346 346 345 345 348 351 352 351 350 347 255 297 186 106 77 19 180 163 197 252 218 256 240 276 247 223 254 208 290 209 153 52 117 65 148 151 232 249 27 9 220 187 175 209 208 187
351 350 347 344 344 346 349 353 353 351 348 276 4 55 347 169 182 252 252 196 245 261 232 229 217 231 202 232 197 214 215 210 95 105 72 238 219 208 269 238 239 262 222 192 211 233 229
350 351 349 345 345 346 350 355 355 354 345 332 8 347 355 295 292 231 194 203 203 255 236 243 233 250 210 235 223 208 186 221 190 138 141 148 169 193 263 335 328 276 260 250 234 228 246
344 347 348 347 344 346 352 356 357 1 355 17 11 249 279 72 204 199 229 205 193 14 240 252 293 305 264 257 268 255 265 302 320 182 142 144 143 165 262 3 314 264 264 236 223 218 225
339 341 345 346 348 348 352 354 358 8 20 335 329 292 309 283 260 227 308 356 263 265 273 295 289 197 58 316 197 132 92 81 127 79 25 137 126 173 269 230 254 350 324 248 250 234 223
340 340 342 344 344 346 350 351 354 2 9 349 312 298 354 296 309 282 262 254 286 264 240 249 277 4 318 210 183 125 91 108 181 36 355 358 156 167 239 248 296 259 202 190 202 222 194
345 341 342 342 343 343 345 349 352 1 6 353 291 264 296 312 229 303 309 304 289 298 261 245 330 323 278 117 156 169 179 169 173 154 60 129 65 254 168 250 263 287 222 202 173 247 183
338 339 339 341 342 342 341 342 346 356 357 349 289 229 272 273 264 201 237 283 253 267 275 300 344 339 336 129 158 185 196 277 201 202 165 162 194 238 255 257 261 213 146 148 206 262 158
335 335 338 336 335 336 337 337 340 344 347 350 298 223 289 270 272 217 233 235 237 249 283 13 245 164 253 166 199 165 208 176 191 183 200 229 219 229 212 244 252 148 132 208 65 131 137
326 328 331 334 331 330 331 330 331 335 337 11 282 311 328 246 276 287 255 254 242 242 311 332 338 281 1 71 210 139 171 177 184 228 134 207 240 225 229 287 350 295 295 124 142 134 146